GFSNGP_prec_precacc_072.txt.gz
Total_Precipitation_Accumulation
0.04 0.02 0.03 0.03 0.01 0.01 0.00 0.00 0.00 0.00 0.00 0.00 0.00 0.00 0.00 0.00 0.00 0.00 0.00 0.00 0.01 0.01 0.01 0.02 0.06 0.05 0.08 0.09 0.15 0.21 0.18 0.11 0.17 0.18 0.18 0.22 0.25 0.20 0.20 0.19 0.16 0.17 0.14 0.11
0.04 0.00 0.04 0.04 0.01 0.00 0.01 0.01 0.00 0.00 0.00 0.00 0.00 0.00 0.00 0.00 0.00 0.00 0.00 0.00 0.00 0.00 0.02 0.02 0.02 0.02 0.06 0.09 0.14 0.12 0.10 0.08 0.13 0.13 0.17 0.24 0.19 0.16 0.13 0.17 0.22 0.20 0.19 0.27
0.24 0.04 0.01 0.02 0.00 0.00 0.00 0.00 0.00 0.01 0.00 0.00 0.00 0.00 0.00 0.00 0.00 0.00 0.00 0.00 0.00 0.00 0.00 0.02 0.03 0.02 0.04 0.07 0.05 0.05 0.05 0.05 0.08 0.09 0.14 0.14 0.19 0.15 0.16 0.25 0.33 0.33 0.42 0.41
0.19 0.05 0.09 0.04 0.01 0.00 0.01 0.01 0.01 0.01 0.00 0.00 0.00 0.00 0.00 0.00 0.00 0.00 0.00 0.00 0.00 0.00 0.01 0.02 0.03 0.00 0.01 0.03 0.03 0.03 0.02 0.04 0.05 0.07 0.10 0.13 0.18 0.14 0.21 0.32 0.38 0.36 0.26 0.18
0.15 0.10 0.11 0.02 0.03 0.02 0.04 0.07 0.05 0.02 0.00 0.00 0.00 0.00 0.01 0.00 0.00 0.00 0.00 0.00 0.00 0.00 0.00 0.00 0.00 0.00 0.01 0.01 0.02 0.03 0.04 0.06 0.06 0.06 0.08 0.16 0.30 0.38 0.35 0.26 0.18 0.14 0.11 0.11
0.23 0.18 0.07 0.01 0.01 0.05 0.15 0.24 0.03 0.02 0.00 0.00 0.00 0.00 0.01 0.00 0.00 0.00 0.00 0.00 0.00 0.00 0.00 0.00 0.00 0.00 0.00 0.00 0.00 0.01 0.02 0.04 0.07 0.16 0.28 0.34 0.30 0.20 0.12 0.09 0.09 0.06 0.08 0.08
0.33 0.27 0.05 0.00 0.00 0.01 0.08 0.12 0.01 0.00 0.00 0.00 0.00 0.00 0.00 0.00 0.00 0.00 0.00 0.00 0.00 0.00 0.00 0.00 0.00 0.00 0.00 0.00 0.01 0.04 0.09 0.16 0.25 0.32 0.27 0.16 0.09 0.04 0.04 0.05 0.06 0.06 0.07 0.06
0.28 0.31 0.12 0.02 0.05 0.07 0.04 0.01 0.00 0.00 0.00 0.00 0.00 0.00 0.00 0.00 0.00 0.00 0.00 0.00 0.00 0.00 0.00 0.00 0.00 0.01 0.03 0.04 0.05 0.09 0.14 0.16 0.15 0.06 0.05 0.09 0.11 0.09 0.07 0.05 0.06 0.08 0.07 0.08
0.17 0.17 0.11 0.06 0.08 0.10 0.09 0.05 0.01 0.01 0.00 0.00 0.00 0.00 0.00 0.00 0.00 0.00 0.00 0.00 0.00 0.00 0.00 0.01 0.04 0.06 0.04 0.02 0.03 0.04 0.03 0.04 0.04 0.05 0.07 0.09 0.10 0.12 0.08 0.08 0.10 0.11 0.11 0.13
0.10 0.10 0.09 0.07 0.04 0.02 0.01 0.01 0.02 0.02 0.02 0.01 0.01 0.00 0.00 0.00 0.00 0.00 0.00 0.00 0.00 0.04 0.08 0.09 0.04 0.01 0.01 0.03 0.05 0.07 0.09 0.08 0.08 0.09 0.13 0.08 0.07 0.09 0.10 0.11 0.16 0.20 0.21 0.23
0.05 0.10 0.18 0.07 0.02 0.02 0.01 0.00 0.00 0.01 0.00 0.01 0.00 0.00 0.01 0.01 0.00 0.00 0.01 0.04 0.08 0.07 0.04 0.04 0.04 0.03 0.04 0.04 0.06 0.07 0.07 0.07 0.08 0.08 0.09 0.09 0.10 0.14 0.12 0.14 0.20 0.20 0.25 0.33
0.09 0.07 0.14 0.05 0.01 0.03 0.01 0.00 0.00 0.00 0.00 0.00 0.01 0.01 0.00 0.00 0.01 0.04 0.12 0.13 0.05 0.02 0.02 0.02 0.02 0.02 0.02 0.04 0.06 0.08 0.10 0.10 0.13 0.14 0.13 0.13 0.14 0.19 0.26 0.24 0.24 0.27 0.31 0.30
0.05 0.03 0.04 0.03 0.02 0.02 0.01 0.01 0.02 0.01 0.01 0.02 0.01 0.00 0.01 0.03 0.13 0.21 0.10 0.04 0.02 0.03 0.03 0.04 0.04 0.04 0.06 0.10 0.15 0.17 0.20 0.22 0.25 0.28 0.26 0.24 0.25 0.28 0.37 0.52 0.55 0.61 0.64 0.64
0.01 0.02 0.05 0.06 0.05 0.03 0.04 0.05 0.04 0.03 0.01 0.01 0.02 0.03 0.11 0.19 0.14 0.07 0.06 0.05 0.06 0.06 0.07 0.10 0.14 0.19 0.26 0.33 0.35 0.36 0.37 0.44 0.47 0.50 0.54 0.61 0.66 0.70 0.72 0.75 0.80 0.85 0.79 0.68
0.00 0.00 0.00 0.02 0.04 0.04 0.05 0.07 0.12 0.15 0.16 0.18 0.26 0.33 0.28 0.17 0.17 0.20 0.22 0.19 0.16 0.15 0.15 0.15 0.16 0.20 0.21 0.21 0.25 0.34 0.42 0.53 0.65 0.78 0.89 0.89 0.83 0.79 0.77 0.75 0.74 0.72 0.63 0.55
0.00 0.00 0.00 0.00 0.01 0.02 0.03 0.04 0.07 0.16 0.26 0.32 0.25 0.16 0.16 0.17 0.16 0.15 0.15 0.16 0.18 0.20 0.20 0.16 0.18 0.25 0.24 0.26 0.36 0.55 0.78 0.94 0.92 0.92 0.92 0.86 0.79 0.71 0.65 0.61 0.57 0.53 0.49 0.45
0.03 0.01 0.01 0.03 0.06 0.10 0.14 0.14 0.15 0.16 0.15 0.11 0.11 0.12 0.13 0.14 0.16 0.19 0.22 0.19 0.16 0.20 0.25 0.36 0.62 0.69 0.76 0.79 0.73 0.75 0.71 0.72 0.65 0.59 0.55 0.52 0.48 0.43 0.38 0.35 0.33 0.28 0.26 0.22
0.04 0.06 0.07 0.11 0.17 0.21 0.21 0.19 0.16 0.14 0.15 0.16 0.17 0.17 0.19 0.21 0.26 0.32 0.40 0.39 0.45 0.62 0.80 0.89 0.84 0.74 0.69 0.65 0.54 0.49 0.43 0.40 0.34 0.31 0.31 0.30 0.25 0.22 0.22 0.23 0.22 0.22 0.20 0.17
0.12 0.16 0.23 0.26 0.27 0.22 0.16 0.15 0.17 0.21 0.28 0.33 0.35 0.48 0.57 0.71 0.79 0.94 0.99 0.89 0.88 0.84 1.03 0.82 0.63 0.46 0.40 0.37 0.29 0.26 0.25 0.23 0.22 0.21 0.20 0.18 0.17 0.17 0.22 0.24 0.27 0.29 0.30 0.26
0.35 0.33 0.27 0.25 0.24 0.25 0.32 0.44 0.46 0.53 0.70 0.64 0.65 0.75 0.85 1.02 0.99 0.93 0.78 0.71 0.70 0.64 0.54 0.42 0.31 0.25 0.21 0.18 0.14 0.13 0.13 0.15 0.15 0.16 0.18 0.23 0.26 0.26 0.25 0.25 0.27 0.27 0.23 0.21
0.59 0.58 0.59 0.61 0.73 0.83 0.88 0.94 0.79 0.85 0.98 0.84 0.69 0.76 0.72 0.76 0.65 0.56 0.41 0.38 0.50 0.37 0.28 0.23 0.18 0.15 0.11 0.10 0.11 0.14 0.17 0.20 0.23 0.25 0.26 0.24 0.22 0.21 0.24 0.24 0.22 0.20 0.18 0.16
0.73 0.71 0.80 0.81 0.66 0.77 0.85 0.77 0.62 0.63 0.62 0.60 0.56 0.54 0.45 0.49 0.43 0.35 0.32 0.27 0.30 0.20 0.16 0.15 0.13 0.10 0.10 0.12 0.13 0.13 0.13 0.16 0.16 0.15 0.18 0.21 0.24 0.22 0.20 0.18 0.17 0.16 0.15 0.15
0.81 0.74 0.68 0.61 0.52 0.55 0.53 0.50 0.51 0.41 0.40 0.38 0.35 0.32 0.25 0.25 0.21 0.14 0.18 0.18 0.13 0.12 0.11 0.11 0.09 0.08 0.08 0.10 0.09 0.12 0.14 0.18 0.19 0.21 0.21 0.18 0.16 0.16 0.15 0.13 0.11 0.11 0.12 0.11
0.66 0.62 0.61 0.61 0.43 0.28 0.32 0.41 0.28 0.23 0.19 0.18 0.17 0.15 0.11 0.09 0.11 0.09 0.08 0.08 0.06 0.05 0.07 0.07 0.06 0.07 0.07 0.13 0.14 0.14 0.15 0.17 0.14 0.12 0.12 0.11 0.12 0.12 0.13 0.11 0.10 0.08 0.09 0.09
0.46 0.43 0.40 0.34 0.24 0.27 0.23 0.20 0.12 0.11 0.09 0.09 0.08 0.07 0.05 0.07 0.13 0.13 0.08 0.07 0.06 0.09 0.09 0.08 0.07 0.07 0.12 0.13 0.14 0.13 0.14 0.15 0.11 0.12 0.13 0.13 0.12 0.11 0.12 0.11 0.10 0.09 0.08 0.08
0.29 0.24 0.22 0.17 0.17 0.15 0.13 0.08 0.10 0.14 0.10 0.09 0.12 0.11 0.10 0.07 0.06 0.07 0.07 0.06 0.07 0.08 0.13 0.15 0.12 0.11 0.12 0.12 0.13 0.12 0.13 0.13 0.13 0.15 0.14 0.13 0.11 0.11 0.10 0.08 0.08 0.08 0.09 0.09
0.17 0.16 0.13 0.13 0.15 0.15 0.14 0.13 0.12 0.13 0.12 0.12 0.14 0.11 0.09 0.07 0.06 0.05 0.07 0.09 0.10 0.12 0.14 0.14 0.13 0.13 0.12 0.12 0.13 0.12 0.13 0.14 0.13 0.12 0.11 0.10 0.09 0.10 0.08 0.09 0.08 0.09 0.09 0.10

GFSNGP_prec_precacc_075.txt.gz
Total_Precipitation_Accumulation
0.04 0.03 0.06 0.13 0.16 0.09 0.10 0.07 0.06 0.01 0.01 0.03 0.02 0.01 0.00 0.00 0.00 0.00 0.00 0.00 0.01 0.02 0.03 0.04 0.07 0.06 0.08 0.09 0.15 0.21 0.18 0.11 0.17 0.18 0.18 0.22 0.25 0.20 0.20 0.19 0.16 0.17 0.14 0.11
0.04 0.01 0.07 0.13 0.14 0.09 0.09 0.06 0.06 0.04 0.04 0.07 0.04 0.02 0.00 0.00 0.00 0.00 0.00 0.00 0.00 0.00 0.02 0.02 0.04 0.08 0.12 0.10 0.14 0.13 0.10 0.08 0.13 0.13 0.17 0.24 0.19 0.16 0.13 0.17 0.22 0.20 0.19 0.27
0.25 0.08 0.08 0.10 0.05 0.09 0.11 0.07 0.05 0.08 0.06 0.04 0.06 0.02 0.00 0.00 0.00 0.00 0.00 0.00 0.00 0.00 0.00 0.02 0.03 0.03 0.05 0.13 0.13 0.10 0.07 0.06 0.09 0.09 0.14 0.14 0.19 0.15 0.16 0.25 0.33 0.33 0.42 0.41
0.23 0.12 0.17 0.05 0.02 0.03 0.09 0.09 0.03 0.04 0.03 0.03 0.06 0.01 0.00 0.00 0.00 0.00 0.00 0.00 0.00 0.00 0.01 0.02 0.03 0.00 0.01 0.04 0.06 0.06 0.07 0.10 0.10 0.09 0.12 0.15 0.18 0.14 0.21 0.32 0.38 0.36 0.26 0.18
0.19 0.18 0.14 0.03 0.10 0.04 0.07 0.11 0.09 0.08 0.07 0.06 0.06 0.01 0.01 0.00 0.00 0.00 0.00 0.00 0.00 0.00 0.00 0.00 0.00 0.00 0.01 0.01 0.02 0.03 0.05 0.10 0.15 0.14 0.14 0.22 0.34 0.39 0.36 0.27 0.18 0.14 0.11 0.11
0.24 0.25 0.12 0.02 0.05 0.07 0.16 0.32 0.15 0.39 0.19 0.04 0.00 0.02 0.01 0.00 0.00 0.00 0.00 0.00 0.00 0.00 0.00 0.00 0.00 0.00 0.00 0.00 0.00 0.01 0.02 0.06 0.11 0.19 0.32 0.42 0.37 0.25 0.16 0.13 0.11 0.08 0.09 0.08
0.33 0.31 0.08 0.02 0.00 0.02 0.23 0.27 0.16 0.14 0.03 0.00 0.00 0.00 0.00 0.00 0.00 0.00 0.00 0.00 0.00 0.00 0.00 0.00 0.00 0.00 0.00 0.00 0.01 0.04 0.09 0.16 0.25 0.32 0.30 0.19 0.16 0.09 0.09 0.16 0.14 0.11 0.11 0.08
0.29 0.31 0.13 0.05 0.14 0.19 0.10 0.08 0.04 0.01 0.00 0.00 0.00 0.00 0.00 0.00 0.00 0.00 0.00 0.00 0.00 0.00 0.00 0.00 0.00 0.01 0.03 0.04 0.05 0.09 0.14 0.16 0.15 0.06 0.05 0.10 0.13 0.14 0.12 0.11 0.12 0.11 0.09 0.09
0.17 0.18 0.16 0.08 0.14 0.13 0.09 0.05 0.01 0.01 0.00 0.00 0.00 0.00 0.00 0.00 0.00 0.00 0.00 0.00 0.00 0.00 0.00 0.01 0.04 0.06 0.04 0.02 0.03 0.04 0.03 0.04 0.04 0.05 0.07 0.09 0.11 0.14 0.12 0.11 0.13 0.16 0.16 0.19
0.14 0.21 0.12 0.07 0.04 0.02 0.01 0.01 0.02 0.02 0.02 0.01 0.01 0.00 0.00 0.00 0.00 0.00 0.00 0.00 0.00 0.04 0.08 0.09 0.04 0.01 0.01 0.03 0.05 0.07 0.09 0.08 0.08 0.09 0.13 0.08 0.07 0.09 0.11 0.13 0.18 0.24 0.28 0.31
0.28 0.78 0.34 0.18 0.03 0.02 0.01 0.00 0.00 0.01 0.00 0.01 0.00 0.00 0.01 0.01 0.00 0.00 0.01 0.04 0.08 0.07 0.04 0.04 0.04 0.03 0.04 0.04 0.06 0.07 0.07 0.07 0.08 0.08 0.09 0.09 0.10 0.15 0.14 0.19 0.26 0.27 0.35 0.46
0.31 0.45 0.42 0.21 0.03 0.03 0.01 0.00 0.00 0.00 0.00 0.00 0.01 0.01 0.00 0.00 0.01 0.04 0.12 0.13 0.05 0.02 0.02 0.02 0.02 0.02 0.02 0.04 0.06 0.08 0.10 0.10 0.13 0.14 0.13 0.13 0.14 0.20 0.30 0.33 0.36 0.39 0.45 0.46
0.09 0.09 0.07 0.04 0.02 0.02 0.01 0.01 0.02 0.01 0.01 0.02 0.01 0.00 0.01 0.03 0.13 0.21 0.10 0.04 0.02 0.03 0.04 0.04 0.04 0.04 0.06 0.10 0.15 0.18 0.21 0.22 0.26 0.29 0.26 0.25 0.26 0.29 0.40 0.65 0.79 0.93 0.99 1.02
0.01 0.02 0.05 0.06 0.05 0.03 0.04 0.05 0.04 0.03 0.01 0.01 0.02 0.03 0.11 0.19 0.14 0.07 0.06 0.06 0.06 0.06 0.07 0.10 0.14 0.20 0.27 0.34 0.37 0.38 0.39 0.46 0.48 0.51 0.55 0.61 0.67 0.72 0.75 0.79 0.86 0.95 0.93 0.82
0.00 0.00 0.00 0.02 0.04 0.04 0.05 0.07 0.12 0.15 0.16 0.18 0.26 0.33 0.28 0.18 0.17 0.21 0.22 0.19 0.17 0.15 0.15 0.15 0.16 0.21 0.22 0.22 0.27 0.36 0.44 0.55 0.66 0.79 0.91 0.90 0.84 0.81 0.79 0.79 0.79 0.79 0.71 0.63
0.00 0.00 0.00 0.00 0.01 0.02 0.03 0.04 0.07 0.16 0.26 0.33 0.26 0.16 0.16 0.18 0.17 0.15 0.16 0.17 0.18 0.21 0.21 0.17 0.19 0.28 0.25 0.27 0.38 0.57 0.79 0.96 0.94 0.94 0.93 0.88 0.80 0.72 0.67 0.63 0.60 0.56 0.53 0.51
0.03 0.02 0.02 0.03 0.06 0.10 0.14 0.14 0.15 0.16 0.16 0.12 0.13 0.13 0.14 0.15 0.17 0.20 0.23 0.20 0.16 0.21 0.27 0.37 0.64 0.71 0.77 0.80 0.74 0.76 0.73 0.73 0.67 0.60 0.56 0.53 0.49 0.44 0.39 0.36 0.34 0.29 0.28 0.24
0.05 0.06 0.07 0.11 0.18 0.21 0.21 0.19 0.16 0.14 0.15 0.16 0.17 0.18 0.20 0.22 0.27 0.33 0.41 0.40 0.46 0.62 0.81 0.90 0.85 0.75 0.71 0.67 0.56 0.51 0.45 0.42 0.36 0.33 0.33 0.31 0.27 0.23 0.23 0.23 0.22 0.22 0.20 0.17
0.12 0.17 0.23 0.26 0.27 0.22 0.16 0.15 0.18 0.21 0.29 0.33 0.36 0.49 0.58 0.72 0.80 0.94 1.00 0.89 0.89 0.84 1.03 0.82 0.63 0.46 0.41 0.37 0.29 0.26 0.25 0.24 0.22 0.21 0.20 0.18 0.17 0.17 0.22 0.24 0.27 0.29 0.30 0.26
0.35 0.33 0.27 0.25 0.24 0.25 0.32 0.44 0.46 0.54 0.71 0.65 0.65 0.75 0.86 1.03 1.00 0.93 0.78 0.71 0.70 0.64 0.54 0.42 0.31 0.25 0.21 0.18 0.14 0.13 0.13 0.15 0.15 0.16 0.18 0.23 0.26 0.26 0.25 0.25 0.27 0.27 0.23 0.21
0.59 0.58 0.59 0.61 0.73 0.83 0.88 0.94 0.79 0.85 0.98 0.85 0.69 0.76 0.72 0.76 0.65 0.56 0.41 0.38 0.50 0.37 0.28 0.23 0.18 0.15 0.11 0.10 0.11 0.14 0.17 0.20 0.23 0.25 0.26 0.24 0.22 0.21 0.24 0.24 0.22 0.20 0.18 0.16
0.74 0.71 0.80 0.81 0.66 0.77 0.85 0.78 0.62 0.63 0.62 0.60 0.56 0.54 0.46 0.50 0.43 0.35 0.32 0.27 0.30 0.20 0.16 0.15 0.13 0.10 0.10 0.12 0.13 0.13 0.13 0.16 0.16 0.15 0.18 0.21 0.24 0.22 0.20 0.18 0.17 0.16 0.15 0.15
0.81 0.74 0.68 0.61 0.52 0.56 0.53 0.50 0.51 0.41 0.40 0.38 0.35 0.32 0.25 0.25 0.21 0.14 0.18 0.18 0.13 0.12 0.11 0.11 0.09 0.08 0.08 0.10 0.09 0.12 0.15 0.19 0.19 0.21 0.21 0.18 0.16 0.16 0.15 0.13 0.12 0.11 0.12 0.11
0.66 0.63 0.61 0.61 0.44 0.28 0.32 0.41 0.28 0.23 0.19 0.18 0.17 0.15 0.12 0.09 0.12 0.09 0.08 0.08 0.06 0.05 0.07 0.07 0.06 0.07 0.07 0.13 0.14 0.14 0.15 0.17 0.14 0.12 0.12 0.11 0.12 0.12 0.13 0.11 0.10 0.08 0.09 0.09
0.46 0.44 0.41 0.35 0.24 0.27 0.23 0.20 0.12 0.11 0.09 0.09 0.08 0.07 0.05 0.07 0.13 0.13 0.08 0.07 0.06 0.09 0.09 0.08 0.07 0.07 0.12 0.13 0.14 0.13 0.14 0.15 0.11 0.12 0.13 0.13 0.12 0.12 0.12 0.11 0.10 0.09 0.09 0.08
0.30 0.24 0.22 0.17 0.17 0.15 0.13 0.08 0.10 0.14 0.11 0.09 0.12 0.11 0.10 0.07 0.06 0.07 0.07 0.06 0.07 0.08 0.13 0.15 0.12 0.11 0.12 0.12 0.13 0.12 0.13 0.13 0.13 0.15 0.14 0.13 0.11 0.11 0.10 0.08 0.08 0.08 0.09 0.09
0.17 0.16 0.13 0.13 0.15 0.15 0.14 0.13 0.13 0.14 0.12 0.12 0.14 0.11 0.09 0.07 0.06 0.05 0.07 0.09 0.10 0.12 0.14 0.14 0.13 0.13 0.12 0.12 0.13 0.12 0.13 0.14 0.13 0.12 0.11 0.10 0.09 0.10 0.08 0.09 0.08 0.09 0.09 0.10

GFSNGP_prec_precacc_078.txt.gz
Total_Precipitation_Accumulation
0.04 0.03 0.08 0.17 0.18 0.20 0.30 0.19 0.08 0.02 0.10 0.25 0.39 0.11 0.01 0.00 0.00 0.00 0.00 0.00 0.02 0.04 0.06 0.07 0.10 0.07 0.09 0.09 0.16 0.22 0.19 0.11 0.17 0.18 0.18 0.22 0.25 0.20 0.20 0.19 0.16 0.17 0.14 0.11
0.04 0.01 0.07 0.14 0.15 0.11 0.15 0.10 0.07 0.05 0.16 0.21 0.34 0.21 0.01 0.00 0.00 0.00 0.00 0.00 0.00 0.00 0.03 0.03 0.09 0.16 0.19 0.16 0.18 0.16 0.11 0.11 0.15 0.15 0.19 0.25 0.19 0.16 0.13 0.17 0.22 0.20 0.19 0.27
0.25 0.08 0.08 0.10 0.05 0.14 0.13 0.11 0.07 0.12 0.12 0.22 0.24 0.29 0.09 0.00 0.00 0.00 0.00 0.00 0.00 0.00 0.00 0.02 0.03 0.03 0.06 0.15 0.14 0.13 0.15 0.13 0.13 0.13 0.16 0.16 0.20 0.16 0.17 0.26 0.33 0.33 0.42 0.41
0.23 0.14 0.22 0.08 0.04 0.19 0.28 0.24 0.08 0.14 0.19 0.30 0.21 0.12 0.04 0.01 0.00 0.00 0.00 0.00 0.00 0.00 0.01 0.02 0.03 0.00 0.01 0.04 0.06 0.07 0.09 0.13 0.11 0.12 0.14 0.17 0.20 0.15 0.24 0.34 0.40 0.37 0.27 0.18
0.19 0.19 0.16 0.08 0.20 0.12 0.40 0.40 0.22 0.24 0.40 0.29 0.14 0.02 0.01 0.00 0.00 0.00 0.00 0.00 0.00 0.00 0.00 0.00 0.00 0.00 0.01 0.01 0.02 0.03 0.05 0.11 0.17 0.17 0.17 0.27 0.36 0.40 0.37 0.29 0.20 0.16 0.15 0.13
0.24 0.26 0.17 0.06 0.08 0.10 0.24 0.51 0.30 0.48 0.37 0.24 0.12 0.05 0.02 0.00 0.00 0.00 0.00 0.00 0.00 0.00 0.00 0.00 0.00 0.00 0.00 0.00 0.00 0.01 0.02 0.06 0.11 0.20 0.33 0.45 0.40 0.27 0.18 0.15 0.13 0.12 0.14 0.10
0.34 0.32 0.08 0.03 0.04 0.07 0.45 0.45 0.28 0.21 0.13 0.14 0.10 0.04 0.01 0.00 0.00 0.00 0.00 0.00 0.00 0.00 0.00 0.00 0.00 0.00 0.00 0.00 0.01 0.04 0.09 0.16 0.25 0.32 0.30 0.19 0.16 0.10 0.13 0.21 0.19 0.17 0.15 0.10
0.30 0.32 0.13 0.10 0.19 0.31 0.27 0.22 0.14 0.10 0.06 0.04 0.02 0.01 0.01 0.00 0.00 0.00 0.00 0.00 0.00 0.00 0.00 0.00 0.00 0.01 0.03 0.04 0.05 0.09 0.14 0.16 0.15 0.06 0.05 0.10 0.13 0.14 0.13 0.14 0.16 0.16 0.13 0.11
0.17 0.21 0.20 0.12 0.19 0.26 0.15 0.16 0.04 0.03 0.03 0.01 0.01 0.00 0.00 0.00 0.00 0.00 0.00 0.00 0.00 0.00 0.00 0.01 0.04 0.06 0.04 0.02 0.03 0.04 0.03 0.04 0.04 0.05 0.07 0.09 0.11 0.14 0.12 0.11 0.14 0.17 0.19 0.24
0.19 0.39 0.14 0.08 0.05 0.03 0.03 0.04 0.02 0.02 0.02 0.01 0.01 0.00 0.00 0.00 0.00 0.00 0.00 0.00 0.00 0.04 0.08 0.09 0.04 0.01 0.01 0.03 0.05 0.07 0.09 0.08 0.08 0.09 0.13 0.08 0.07 0.09 0.11 0.13 0.18 0.25 0.31 0.36
0.43 1.17 0.44 0.27 0.15 0.04 0.01 0.00 0.01 0.01 0.00 0.01 0.00 0.00 0.01 0.01 0.00 0.00 0.01 0.04 0.08 0.07 0.04 0.04 0.04 0.03 0.04 0.04 0.06 0.07 0.07 0.07 0.08 0.08 0.09 0.09 0.10 0.16 0.14 0.19 0.27 0.27 0.35 0.47
0.56 0.81 0.66 0.37 0.10 0.04 0.01 0.00 0.00 0.00 0.00 0.00 0.01 0.01 0.00 0.00 0.01 0.04 0.12 0.13 0.05 0.02 0.02 0.03 0.02 0.02 0.02 0.04 0.06 0.08 0.10 0.10 0.14 0.14 0.13 0.13 0.15 0.21 0.31 0.34 0.37 0.40 0.46 0.47
0.33 0.34 0.23 0.09 0.04 0.03 0.01 0.01 0.02 0.01 0.01 0.02 0.01 0.00 0.01 0.03 0.13 0.21 0.11 0.04 0.03 0.03 0.04 0.05 0.04 0.05 0.06 0.10 0.15 0.18 0.21 0.22 0.26 0.29 0.26 0.25 0.26 0.29 0.41 0.66 0.79 0.94 1.01 1.03
0.08 0.05 0.06 0.06 0.05 0.03 0.04 0.05 0.04 0.03 0.01 0.01 0.02 0.03 0.11 0.20 0.14 0.07 0.07 0.06 0.06 0.06 0.08 0.11 0.14 0.21 0.28 0.34 0.37 0.38 0.39 0.46 0.48 0.51 0.55 0.62 0.68 0.72 0.76 0.80 0.86 0.95 0.94 0.84
0.00 0.00 0.00 0.02 0.04 0.04 0.05 0.07 0.12 0.15 0.16 0.18 0.26 0.33 0.28 0.18 0.18 0.22 0.23 0.20 0.17 0.15 0.15 0.15 0.16 0.22 0.23 0.22 0.27 0.36 0.44 0.55 0.67 0.79 0.91 0.91 0.85 0.82 0.80 0.79 0.80 0.80 0.72 0.64
0.00 0.00 0.00 0.00 0.01 0.02 0.03 0.04 0.08 0.16 0.27 0.33 0.26 0.16 0.16 0.18 0.17 0.16 0.16 0.17 0.18 0.22 0.21 0.17 0.20 0.29 0.26 0.27 0.38 0.57 0.80 0.96 0.94 0.94 0.94 0.88 0.81 0.73 0.68 0.64 0.61 0.58 0.55 0.53
0.03 0.02 0.02 0.04 0.07 0.10 0.14 0.15 0.15 0.17 0.16 0.12 0.13 0.14 0.14 0.15 0.17 0.20 0.23 0.21 0.17 0.21 0.27 0.37 0.65 0.71 0.77 0.80 0.74 0.77 0.73 0.73 0.67 0.60 0.57 0.54 0.50 0.45 0.40 0.37 0.35 0.31 0.31 0.26
0.05 0.07 0.08 0.12 0.18 0.22 0.22 0.19 0.16 0.14 0.16 0.17 0.18 0.18 0.20 0.22 0.28 0.34 0.42 0.40 0.46 0.62 0.81 0.90 0.85 0.75 0.71 0.67 0.56 0.51 0.46 0.42 0.36 0.33 0.33 0.32 0.28 0.23 0.23 0.23 0.23 0.22 0.20 0.17
0.12 0.17 0.23 0.26 0.27 0.22 0.17 0.16 0.18 0.22 0.29 0.33 0.36 0.49 0.58 0.72 0.81 0.95 1.01 0.89 0.89 0.84 1.03 0.82 0.63 0.46 0.41 0.37 0.29 0.26 0.25 0.24 0.22 0.21 0.20 0.18 0.17 0.17 0.22 0.25 0.27 0.29 0.30 0.26
0.35 0.33 0.27 0.25 0.24 0.25 0.33 0.44 0.46 0.54 0.71 0.65 0.65 0.75 0.86 1.03 1.00 0.93 0.78 0.71 0.70 0.64 0.54 0.42 0.31 0.25 0.21 0.18 0.14 0.13 0.13 0.15 0.15 0.16 0.18 0.23 0.26 0.26 0.26 0.25 0.27 0.27 0.23 0.21
0.59 0.58 0.59 0.61 0.74 0.83 0.88 0.95 0.79 0.86 0.98 0.85 0.69 0.76 0.73 0.76 0.65 0.56 0.41 0.38 0.50 0.37 0.28 0.23 0.18 0.15 0.11 0.10 0.11 0.14 0.17 0.20 0.23 0.25 0.26 0.24 0.22 0.21 0.25 0.24 0.22 0.20 0.19 0.16
0.74 0.71 0.80 0.81 0.66 0.78 0.85 0.78 0.62 0.63 0.62 0.60 0.56 0.54 0.46 0.50 0.43 0.35 0.32 0.27 0.30 0.20 0.16 0.15 0.13 0.10 0.10 0.12 0.13 0.13 0.13 0.16 0.16 0.15 0.18 0.21 0.24 0.22 0.20 0.18 0.17 0.16 0.15 0.15
0.81 0.74 0.68 0.61 0.52 0.56 0.54 0.50 0.51 0.41 0.40 0.38 0.35 0.32 0.25 0.25 0.21 0.14 0.18 0.18 0.13 0.12 0.11 0.11 0.09 0.08 0.08 0.10 0.09 0.12 0.15 0.19 0.19 0.21 0.21 0.18 0.16 0.16 0.15 0.13 0.12 0.12 0.12 0.11
0.66 0.63 0.61 0.61 0.44 0.28 0.32 0.41 0.28 0.23 0.19 0.18 0.17 0.15 0.12 0.09 0.12 0.09 0.08 0.08 0.06 0.05 0.07 0.07 0.06 0.07 0.07 0.13 0.14 0.14 0.15 0.17 0.14 0.12 0.12 0.11 0.12 0.12 0.13 0.11 0.10 0.08 0.09 0.09
0.47 0.44 0.41 0.36 0.25 0.27 0.23 0.20 0.12 0.11 0.09 0.09 0.08 0.07 0.05 0.07 0.13 0.13 0.08 0.07 0.06 0.09 0.09 0.08 0.07 0.07 0.12 0.13 0.14 0.13 0.14 0.15 0.11 0.12 0.14 0.13 0.12 0.12 0.12 0.11 0.10 0.09 0.09 0.08
0.30 0.24 0.22 0.18 0.17 0.15 0.13 0.08 0.11 0.15 0.11 0.10 0.12 0.11 0.10 0.07 0.06 0.07 0.07 0.06 0.07 0.08 0.13 0.15 0.12 0.11 0.12 0.12 0.13 0.12 0.13 0.13 0.13 0.15 0.14 0.13 0.11 0.11 0.10 0.08 0.08 0.08 0.09 0.09
0.17 0.16 0.13 0.13 0.15 0.15 0.14 0.13 0.13 0.14 0.12 0.13 0.14 0.11 0.09 0.07 0.06 0.05 0.07 0.09 0.10 0.12 0.14 0.14 0.13 0.13 0.12 0.12 0.13 0.12 0.13 0.14 0.13 0.12 0.11 0.10 0.09 0.10 0.08 0.09 0.08 0.09 0.09 0.10

GFSNGP_prec_precacc_084.txt.gz
Total_Precipitation_Accumulation
0.04 0.03 0.08 0.17 0.18 0.20 0.32 0.23 0.15 0.04 0.11 0.37 0.72 0.32 0.06 0.02 0.01 0.02 0.01 0.02 0.04 0.08 0.14 0.16 0.16 0.11 0.12 0.10 0.17 0.23 0.19 0.12 0.18 0.18 0.18 0.22 0.25 0.20 0.20 0.19 0.16 0.17 0.14 0.11
0.04 0.01 0.07 0.14 0.15 0.11 0.15 0.10 0.09 0.06 0.17 0.30 0.56 0.55 0.29 0.15 0.03 0.05 0.04 0.04 0.04 0.07 0.14 0.18 0.23 0.27 0.31 0.25 0.23 0.19 0.15 0.16 0.18 0.17 0.20 0.25 0.19 0.16 0.13 0.17 0.22 0.20 0.19 0.27
0.25 0.08 0.08 0.10 0.05 0.14 0.14 0.11 0.07 0.12 0.12 0.30 0.57 0.63 0.47 0.33 0.12 0.04 0.03 0.02 0.03 0.05 0.06 0.08 0.07 0.06 0.10 0.17 0.17 0.16 0.17 0.15 0.15 0.15 0.18 0.17 0.22 0.17 0.20 0.28 0.34 0.34 0.43 0.42
0.23 0.14 0.22 0.08 0.05 0.22 0.36 0.28 0.11 0.16 0.20 0.39 0.46 0.29 0.41 0.37 0.34 0.10 0.04 0.02 0.01 0.01 0.03 0.03 0.03 0.01 0.01 0.04 0.06 0.07 0.09 0.13 0.11 0.13 0.16 0.20 0.25 0.22 0.29 0.37 0.44 0.42 0.32 0.21
0.19 0.19 0.16 0.08 0.26 0.33 0.66 0.58 0.31 0.28 0.42 0.38 0.25 0.07 0.35 0.38 0.27 0.28 0.05 0.02 0.00 0.00 0.00 0.01 0.00 0.00 0.01 0.01 0.02 0.03 0.05 0.11 0.17 0.17 0.17 0.28 0.36 0.42 0.40 0.32 0.25 0.22 0.22 0.16
0.24 0.26 0.17 0.06 0.11 0.26 0.46 0.88 0.89 0.70 0.48 0.39 0.24 0.16 0.35 0.37 0.27 0.25 0.19 0.05 0.01 0.00 0.01 0.00 0.00 0.00 0.00 0.00 0.00 0.01 0.02 0.06 0.11 0.20 0.33 0.45 0.40 0.27 0.19 0.16 0.15 0.16 0.20 0.14
0.34 0.33 0.09 0.03 0.06 0.19 0.80 0.80 0.89 1.11 0.55 0.39 0.34 0.31 0.36 0.36 0.25 0.13 0.16 0.15 0.06 0.01 0.00 0.00 0.00 0.00 0.00 0.00 0.01 0.04 0.09 0.16 0.25 0.32 0.30 0.19 0.16 0.10 0.13 0.21 0.20 0.19 0.17 0.13
0.31 0.35 0.14 0.12 0.26 0.57 0.70 0.69 0.71 0.79 0.68 0.64 0.63 0.47 0.36 0.18 0.07 0.02 0.02 0.04 0.06 0.04 0.02 0.00 0.00 0.01 0.03 0.04 0.05 0.09 0.14 0.16 0.15 0.06 0.05 0.10 0.13 0.14 0.13 0.14 0.16 0.16 0.15 0.14
0.19 0.24 0.24 0.14 0.24 0.46 0.56 0.49 0.38 0.46 0.47 0.43 0.37 0.29 0.17 0.05 0.01 0.01 0.01 0.01 0.00 0.01 0.01 0.02 0.05 0.06 0.04 0.02 0.03 0.04 0.03 0.04 0.04 0.05 0.07 0.09 0.11 0.14 0.12 0.11 0.14 0.17 0.20 0.25
0.28 0.52 0.18 0.10 0.17 0.18 0.21 0.22 0.12 0.12 0.11 0.11 0.11 0.09 0.06 0.02 0.01 0.00 0.00 0.00 0.01 0.04 0.09 0.09 0.05 0.01 0.01 0.03 0.05 0.07 0.09 0.08 0.08 0.09 0.13 0.08 0.07 0.09 0.11 0.13 0.18 0.25 0.31 0.36
0.62 1.29 0.61 0.55 0.57 0.44 0.18 0.15 0.08 0.07 0.06 0.05 0.03 0.02 0.02 0.01 0.00 0.01 0.01 0.04 0.08 0.07 0.04 0.04 0.04 0.03 0.04 0.04 0.06 0.07 0.07 0.07 0.08 0.08 0.09 0.09 0.11 0.17 0.15 0.22 0.27 0.28 0.36 0.48
0.86 1.10 0.93 0.74 0.47 0.33 0.15 0.07 0.04 0.03 0.01 0.00 0.01 0.01 0.00 0.01 0.01 0.04 0.12 0.13 0.06 0.03 0.02 0.03 0.03 0.02 0.02 0.04 0.06 0.08 0.10 0.10 0.14 0.14 0.13 0.13 0.15 0.22 0.33 0.36 0.38 0.41 0.47 0.48
0.71 0.75 0.59 0.41 0.23 0.13 0.06 0.03 0.02 0.01 0.01 0.02 0.01 0.00 0.01 0.03 0.13 0.21 0.11 0.04 0.03 0.04 0.04 0.05 0.05 0.06 0.07 0.10 0.15 0.18 0.21 0.22 0.26 0.29 0.26 0.25 0.26 0.29 0.42 0.67 0.80 0.95 1.02 1.04
0.37 0.29 0.20 0.15 0.09 0.04 0.04 0.05 0.04 0.03 0.01 0.01 0.02 0.03 0.11 0.20 0.14 0.08 0.07 0.07 0.07 0.06 0.08 0.11 0.15 0.23 0.29 0.34 0.37 0.38 0.39 0.46 0.49 0.52 0.56 0.62 0.68 0.72 0.76 0.80 0.86 0.96 0.95 0.85
0.07 0.03 0.03 0.03 0.04 0.04 0.05 0.07 0.12 0.15 0.16 0.19 0.26 0.33 0.28 0.18 0.19 0.23 0.24 0.20 0.17 0.15 0.16 0.15 0.16 0.24 0.24 0.23 0.27 0.36 0.45 0.56 0.67 0.79 0.91 0.91 0.85 0.82 0.80 0.79 0.80 0.80 0.72 0.65
0.00 0.00 0.00 0.00 0.01 0.02 0.03 0.04 0.08 0.17 0.27 0.33 0.26 0.17 0.17 0.19 0.18 0.16 0.16 0.17 0.19 0.22 0.22 0.18 0.21 0.32 0.27 0.27 0.38 0.57 0.80 0.96 0.94 0.94 0.94 0.88 0.81 0.73 0.68 0.64 0.61 0.58 0.55 0.54
0.03 0.03 0.03 0.04 0.07 0.10 0.14 0.15 0.16 0.17 0.17 0.13 0.14 0.14 0.14 0.15 0.17 0.21 0.24 0.21 0.17 0.22 0.28 0.38 0.66 0.72 0.78 0.80 0.74 0.77 0.73 0.73 0.67 0.60 0.57 0.55 0.50 0.45 0.40 0.37 0.35 0.31 0.31 0.27
0.05 0.07 0.08 0.12 0.18 0.22 0.22 0.20 0.16 0.14 0.16 0.17 0.18 0.18 0.20 0.22 0.28 0.34 0.42 0.40 0.46 0.62 0.81 0.91 0.85 0.75 0.71 0.67 0.56 0.51 0.46 0.42 0.36 0.34 0.34 0.32 0.28 0.23 0.23 0.23 0.23 0.22 0.20 0.17
0.12 0.17 0.23 0.26 0.27 0.22 0.17 0.16 0.19 0.22 0.29 0.33 0.36 0.49 0.58 0.72 0.81 0.95 1.01 0.89 0.89 0.84 1.04 0.82 0.63 0.46 0.41 0.37 0.29 0.26 0.25 0.24 0.22 0.21 0.20 0.18 0.17 0.17 0.22 0.25 0.27 0.29 0.30 0.26
0.35 0.33 0.27 0.25 0.24 0.25 0.33 0.45 0.46 0.54 0.71 0.65 0.65 0.75 0.86 1.03 1.00 0.93 0.78 0.71 0.70 0.65 0.54 0.42 0.31 0.25 0.21 0.18 0.14 0.13 0.13 0.15 0.15 0.16 0.18 0.23 0.26 0.27 0.26 0.26 0.28 0.28 0.23 0.21
0.59 0.58 0.59 0.61 0.74 0.83 0.88 0.95 0.79 0.86 0.98 0.85 0.69 0.76 0.73 0.76 0.65 0.56 0.41 0.38 0.50 0.37 0.28 0.23 0.18 0.15 0.11 0.10 0.11 0.14 0.17 0.20 0.23 0.25 0.26 0.24 0.22 0.21 0.25 0.24 0.22 0.20 0.19 0.16
0.74 0.71 0.80 0.81 0.66 0.78 0.85 0.78 0.62 0.63 0.62 0.60 0.56 0.54 0.46 0.50 0.43 0.35 0.32 0.27 0.30 0.20 0.16 0.15 0.13 0.10 0.10 0.12 0.13 0.13 0.13 0.16 0.16 0.15 0.18 0.21 0.24 0.22 0.20 0.18 0.17 0.16 0.15 0.15
0.81 0.74 0.68 0.61 0.52 0.56 0.54 0.50 0.51 0.41 0.40 0.38 0.35 0.32 0.25 0.25 0.21 0.14 0.18 0.18 0.13 0.12 0.11 0.11 0.09 0.08 0.08 0.10 0.09 0.12 0.15 0.19 0.19 0.21 0.21 0.18 0.16 0.16 0.15 0.13 0.12 0.12 0.12 0.11
0.66 0.63 0.61 0.61 0.44 0.28 0.32 0.41 0.28 0.23 0.19 0.18 0.17 0.15 0.12 0.09 0.12 0.09 0.08 0.08 0.06 0.05 0.07 0.07 0.06 0.07 0.07 0.13 0.14 0.14 0.15 0.17 0.14 0.12 0.12 0.11 0.12 0.12 0.13 0.11 0.10 0.08 0.10 0.09
0.47 0.44 0.42 0.36 0.25 0.28 0.23 0.20 0.12 0.11 0.09 0.09 0.08 0.07 0.05 0.07 0.13 0.13 0.08 0.07 0.06 0.09 0.09 0.08 0.07 0.07 0.12 0.13 0.14 0.13 0.14 0.15 0.11 0.12 0.14 0.13 0.12 0.12 0.12 0.11 0.10 0.09 0.09 0.08
0.30 0.24 0.23 0.18 0.17 0.15 0.13 0.09 0.12 0.16 0.12 0.10 0.12 0.11 0.10 0.07 0.06 0.07 0.07 0.06 0.07 0.08 0.13 0.15 0.12 0.11 0.12 0.12 0.13 0.12 0.13 0.13 0.13 0.15 0.14 0.13 0.11 0.11 0.10 0.08 0.08 0.08 0.09 0.09
0.17 0.16 0.13 0.13 0.15 0.15 0.14 0.13 0.14 0.15 0.13 0.13 0.15 0.11 0.09 0.07 0.06 0.05 0.07 0.09 0.10 0.12 0.14 0.14 0.13 0.13 0.12 0.12 0.13 0.12 0.13 0.14 0.13 0.12 0.11 0.10 0.09 0.10 0.08 0.09 0.08 0.09 0.09 0.10

GFSNGP_prec_precacc_087.txt.gz
Total_Precipitation_Accumulation
0.04 0.03 0.08 0.17 0.18 0.20 0.32 0.23 0.15 0.04 0.11 0.37 0.72 0.32 0.06 0.02 0.01 0.05 0.04 0.05 0.09 0.13 0.18 0.18 0.19 0.13 0.12 0.10 0.17 0.23 0.19 0.12 0.18 0.18 0.18 0.22 0.25 0.20 0.20 0.19 0.16 0.17 0.14 0.11
0.04 0.01 0.07 0.14 0.15 0.11 0.15 0.10 0.09 0.06 0.17 0.30 0.56 0.56 0.29 0.15 0.04 0.09 0.09 0.06 0.08 0.12 0.18 0.22 0.30 0.33 0.36 0.27 0.24 0.20 0.15 0.16 0.18 0.17 0.20 0.25 0.19 0.16 0.13 0.17 0.22 0.20 0.19 0.27
0.25 0.08 0.08 0.10 0.05 0.14 0.14 0.11 0.07 0.12 0.12 0.30 0.57 0.65 0.50 0.33 0.14 0.11 0.11 0.06 0.06 0.10 0.10 0.14 0.14 0.09 0.13 0.20 0.18 0.17 0.18 0.16 0.15 0.16 0.18 0.18 0.22 0.18 0.20 0.28 0.34 0.34 0.43 0.42
0.23 0.14 0.22 0.08 0.05 0.22 0.36 0.28 0.11 0.16 0.20 0.39 0.46 0.30 0.43 0.43 0.43 0.25 0.16 0.09 0.05 0.04 0.06 0.06 0.07 0.02 0.03 0.06 0.08 0.08 0.10 0.14 0.13 0.14 0.17 0.21 0.26 0.23 0.31 0.39 0.46 0.43 0.33 0.22
0.19 0.19 0.16 0.08 0.26 0.33 0.66 0.58 0.31 0.28 0.42 0.39 0.26 0.07 0.37 0.45 0.40 0.57 0.26 0.14 0.09 0.07 0.02 0.03 0.04 0.06 0.06 0.04 0.04 0.04 0.06 0.12 0.17 0.17 0.18 0.28 0.37 0.42 0.40 0.33 0.26 0.23 0.24 0.18
0.24 0.26 0.17 0.06 0.11 0.26 0.47 0.89 0.90 0.71 0.49 0.40 0.25 0.19 0.43 0.43 0.29 0.39 0.57 0.22 0.10 0.06 0.03 0.02 0.04 0.07 0.08 0.04 0.01 0.01 0.02 0.06 0.11 0.20 0.33 0.45 0.40 0.27 0.19 0.16 0.16 0.17 0.22 0.17
0.34 0.33 0.09 0.03 0.06 0.19 0.83 0.87 0.96 1.25 0.77 0.62 0.47 0.40 0.50 0.52 0.34 0.25 0.45 0.54 0.20 0.06 0.02 0.02 0.03 0.05 0.07 0.02 0.02 0.05 0.09 0.16 0.25 0.32 0.30 0.19 0.16 0.10 0.13 0.21 0.20 0.19 0.18 0.14
0.31 0.35 0.14 0.12 0.26 0.58 0.76 0.84 0.88 1.07 1.13 1.18 1.00 0.82 0.67 0.43 0.23 0.13 0.12 0.25 0.37 0.21 0.06 0.01 0.02 0.03 0.04 0.05 0.05 0.09 0.14 0.16 0.15 0.06 0.05 0.10 0.13 0.14 0.13 0.14 0.16 0.16 0.15 0.14
0.21 0.25 0.27 0.16 0.26 0.51 0.60 0.61 0.57 0.69 0.73 0.78 0.72 0.58 0.42 0.19 0.09 0.07 0.08 0.07 0.07 0.12 0.16 0.13 0.09 0.07 0.05 0.02 0.04 0.04 0.03 0.04 0.05 0.05 0.07 0.09 0.11 0.14 0.12 0.11 0.14 0.17 0.20 0.25
0.43 0.61 0.22 0.13 0.20 0.26 0.32 0.39 0.31 0.32 0.31 0.28 0.27 0.27 0.23 0.12 0.04 0.02 0.01 0.01 0.02 0.07 0.12 0.14 0.10 0.07 0.05 0.04 0.06 0.07 0.09 0.08 0.08 0.09 0.13 0.08 0.07 0.09 0.11 0.13 0.18 0.25 0.31 0.37
0.73 1.36 0.65 0.58 0.63 0.55 0.34 0.31 0.23 0.22 0.17 0.13 0.09 0.08 0.10 0.08 0.05 0.03 0.03 0.06 0.10 0.08 0.05 0.05 0.04 0.03 0.05 0.05 0.06 0.07 0.07 0.07 0.08 0.08 0.09 0.09 0.12 0.17 0.16 0.23 0.28 0.28 0.37 0.48
0.91 1.18 1.00 0.82 0.57 0.43 0.25 0.17 0.11 0.06 0.03 0.01 0.02 0.02 0.02 0.02 0.02 0.04 0.12 0.14 0.06 0.03 0.03 0.04 0.03 0.03 0.03 0.04 0.06 0.08 0.10 0.10 0.14 0.14 0.13 0.13 0.15 0.23 0.34 0.37 0.38 0.42 0.47 0.49
0.80 0.84 0.69 0.52 0.33 0.22 0.12 0.09 0.05 0.02 0.01 0.02 0.01 0.00 0.01 0.03 0.13 0.21 0.11 0.04 0.03 0.04 0.05 0.05 0.05 0.06 0.07 0.10 0.15 0.18 0.21 0.22 0.26 0.29 0.26 0.25 0.26 0.29 0.42 0.67 0.80 0.95 1.02 1.05
0.47 0.36 0.29 0.24 0.15 0.09 0.06 0.06 0.04 0.03 0.01 0.01 0.02 0.03 0.11 0.20 0.14 0.08 0.08 0.07 0.07 0.06 0.08 0.11 0.15 0.23 0.30 0.34 0.37 0.38 0.39 0.46 0.49 0.52 0.56 0.62 0.68 0.72 0.76 0.80 0.86 0.96 0.96 0.86
0.12 0.06 0.05 0.05 0.05 0.04 0.05 0.07 0.12 0.15 0.16 0.19 0.26 0.33 0.28 0.18 0.19 0.23 0.25 0.20 0.17 0.15 0.16 0.15 0.16 0.25 0.24 0.23 0.27 0.36 0.45 0.56 0.67 0.79 0.91 0.91 0.85 0.82 0.80 0.79 0.80 0.80 0.72 0.65
0.02 0.00 0.00 0.00 0.01 0.02 0.03 0.04 0.08 0.17 0.27 0.33 0.26 0.17 0.17 0.19 0.18 0.16 0.17 0.17 0.19 0.23 0.22 0.18 0.21 0.32 0.27 0.27 0.38 0.57 0.80 0.96 0.94 0.94 0.94 0.88 0.81 0.73 0.68 0.64 0.61 0.58 0.55 0.54
0.03 0.03 0.03 0.04 0.07 0.10 0.15 0.15 0.16 0.17 0.17 0.13 0.14 0.14 0.15 0.16 0.17 0.21 0.24 0.21 0.17 0.22 0.28 0.38 0.66 0.72 0.78 0.80 0.74 0.77 0.73 0.73 0.67 0.60 0.57 0.55 0.50 0.45 0.40 0.37 0.35 0.31 0.31 0.27
0.05 0.07 0.08 0.12 0.18 0.22 0.22 0.20 0.16 0.14 0.16 0.18 0.18 0.18 0.20 0.22 0.28 0.34 0.42 0.40 0.46 0.62 0.81 0.91 0.85 0.75 0.71 0.67 0.56 0.51 0.46 0.42 0.36 0.34 0.34 0.32 0.28 0.23 0.23 0.23 0.23 0.22 0.20 0.17
0.12 0.17 0.23 0.26 0.27 0.22 0.17 0.16 0.19 0.22 0.29 0.33 0.36 0.49 0.58 0.72 0.81 0.95 1.01 0.89 0.89 0.84 1.04 0.82 0.63 0.46 0.41 0.37 0.29 0.26 0.25 0.24 0.22 0.21 0.20 0.18 0.17 0.17 0.22 0.25 0.27 0.29 0.30 0.26
0.35 0.33 0.27 0.25 0.24 0.25 0.33 0.45 0.46 0.54 0.71 0.65 0.65 0.75 0.86 1.03 1.00 0.93 0.78 0.71 0.71 0.65 0.54 0.42 0.31 0.25 0.21 0.18 0.14 0.13 0.13 0.15 0.15 0.16 0.18 0.23 0.26 0.27 0.26 0.26 0.28 0.28 0.23 0.21
0.59 0.58 0.59 0.61 0.74 0.83 0.88 0.95 0.79 0.86 0.98 0.85 0.69 0.76 0.73 0.76 0.65 0.56 0.41 0.38 0.50 0.37 0.28 0.23 0.18 0.15 0.11 0.10 0.11 0.14 0.17 0.20 0.23 0.25 0.26 0.24 0.22 0.21 0.25 0.24 0.22 0.20 0.19 0.16
0.74 0.71 0.80 0.81 0.66 0.78 0.85 0.78 0.62 0.63 0.62 0.60 0.56 0.54 0.46 0.50 0.43 0.35 0.32 0.27 0.30 0.20 0.16 0.15 0.13 0.10 0.10 0.12 0.13 0.13 0.13 0.16 0.16 0.15 0.18 0.21 0.24 0.22 0.20 0.18 0.17 0.16 0.15 0.15
0.81 0.74 0.68 0.61 0.52 0.56 0.54 0.50 0.51 0.41 0.40 0.38 0.35 0.32 0.25 0.25 0.21 0.14 0.18 0.18 0.13 0.12 0.11 0.11 0.09 0.08 0.08 0.10 0.09 0.12 0.15 0.19 0.19 0.21 0.21 0.18 0.16 0.16 0.15 0.13 0.12 0.12 0.12 0.11
0.66 0.63 0.61 0.61 0.44 0.28 0.32 0.41 0.28 0.23 0.19 0.18 0.17 0.15 0.12 0.09 0.12 0.09 0.08 0.08 0.06 0.05 0.07 0.07 0.06 0.07 0.07 0.13 0.14 0.14 0.15 0.17 0.14 0.12 0.12 0.11 0.12 0.12 0.13 0.11 0.10 0.08 0.10 0.09
0.47 0.44 0.42 0.36 0.25 0.28 0.23 0.20 0.12 0.11 0.09 0.09 0.08 0.07 0.05 0.07 0.13 0.13 0.08 0.07 0.06 0.09 0.09 0.08 0.07 0.07 0.12 0.13 0.14 0.13 0.14 0.15 0.11 0.12 0.14 0.13 0.12 0.12 0.12 0.11 0.10 0.09 0.09 0.08
0.30 0.24 0.23 0.18 0.18 0.15 0.13 0.09 0.12 0.16 0.12 0.10 0.12 0.11 0.10 0.07 0.06 0.07 0.07 0.06 0.07 0.08 0.13 0.15 0.12 0.11 0.12 0.12 0.13 0.12 0.13 0.13 0.13 0.15 0.14 0.13 0.11 0.11 0.10 0.08 0.08 0.08 0.09 0.09
0.17 0.16 0.13 0.13 0.15 0.15 0.14 0.13 0.14 0.15 0.13 0.14 0.15 0.12 0.09 0.07 0.06 0.05 0.07 0.09 0.10 0.12 0.14 0.14 0.13 0.13 0.12 0.12 0.13 0.12 0.13 0.14 0.13 0.12 0.11 0.11 0.10 0.10 0.08 0.09 0.08 0.09 0.09 0.10